Regional Weather Roundup
Issued by NWS

Home | Current Version | Previous Version | Text Only | Print | Product List | Glossary Off
Versions: 1 2 3 4 5 6 7 8 9 10 11 12 13 14 15 16 17 18 19 20 21 22 23 24 25 26 27 28 29 30 31 32 33 34 35 36 37 38 39 40 41 42 43 44 45 46 47 48 49 50

000
ASUS43 KMPX 281901
RWRMN
WEATHER ROUNDUP FOR MINNESOTA
NATIONAL WEATHER SERVICE TWIN CITIES/CHANHASSEN MN
200 PM CDT TUE JUL 28 2015


NOTE: "FAIR" INDICATES FEW OR NO CLOUDS BELOW 12,000 FEET WITH NO
SIGNIFICANT WEATHER AND/OR OBSTRUCTIONS TO VISIBILITY. N/A MEANS
CURRENT SKY AND/OR WEATHER CONDITIONS ARE NOT AVAILABLE.

MNZ060>063-068>070-282000-
   Twin Cities Metro

CITY           SKY/WX    TMP DP  RH WIND       PRES   REMARKS
TWIN CITIES    CLOUDY    81  70  69 S13       29.82F
ST PAUL        CLOUDY    82  72  71 S14G22    29.82F
CRYSTAL        CLOUDY    82  70  66 S15       29.80F
LAKEVILLE      CLOUDY    81  72  74 S7G16     29.83F
EDEN PRAIRIE   PTSUNNY   81  71  71 S15       29.81F
SOUTH ST PAUL  CLOUDY    82  69  66 S14       29.82F
LAKE ELMO      CLOUDY    81  72  74 S14       29.84S
$$
MNZ001>005-007-008-013>017-022>024-027-028-282000-
   Northwest Minnesota

CITY           SKY/WX    TMP DP  RH WIND       PRES   REMARKS
BEMIDJI        PTSUNNY   79  67  66 SW20G25   29.70R
HALLOCK        MOSUNNY   77  63  61 SW21G26   29.55F
ROSEAU         MOSUNNY   79  70  73 S20       29.57F
WARROAD        PTSUNNY   79  72  78 S13G20    29.59S
THIEF RVR FALL PTSUNNY   75  63  64 SW16G26   29.64R
CROOKSTON      SUNNY     75  63  64 SW21G26   29.65S
FOSSTON        MOSUNNY   77  64  65 S24G30    29.69R
DETROIT LAKES  MOSUNNY   77  61  57 SW17G28   29.75S
MOORHEAD       SUNNY     79  61  53 SW15G24   29.72S
PARK RAPIDS    PTSUNNY   78  65  63 SW15G28   29.74S
MAHNOMEN       MOCLDY    75  64  68 SW18G26   29.70S
$$
MNZ006-009>011-018-025>026-282000-
   North Central Minnesota

CITY           SKY/WX    TMP DP  RH WIND       PRES   REMARKS
BAUDETTE       CLOUDY    77  69  76 S13G23    29.62S
FLAG ISLAND    MOSUNNY   75  72  88 S16       29.57S
INTL FALLS     CLOUDY    76  71  85 S8G16     29.67S
WASKISH        CLOUDY    75  72  88 S9        29.66S
BIG FORK       CLOUDY    81  70  69 S20G25    29.72R
LONGVILLE      PTSUNNY   79  68  69 S12G17    29.75F
GRAND RAPIDS   CLOUDY    77  66  69 SW12G18   29.76R
CRANE LAKE     CLOUDY    73  70  88 S2        29.73F
ORR            CLOUDY    79  64  61 SW10G17   29.70R
COOK           CLOUDY    79  66  65 S17G23    29.74R
WALKER         MOCLDY    77  68  72 SW20G26   29.72F
$$
MNZ012-019>021-037-282000-
   Northeast Minnesota

CITY           SKY/WX    TMP DP  RH WIND       PRES   REMARKS
DULUTH         PTSUNNY   82  68  62 SW20G29   29.79S
ELY            PTSUNNY   81  68  65 S12G20    29.75F
HIBBING        CLOUDY    79  67  66 S13G22    29.76R
EVELETH        CLOUDY    79  64  61 SW18G25   29.77S
DULUTH HARBOR  PTSUNNY   84  72  65 SW26G32   29.75F
TWO HARBORS    PTSUNNY   84  73  70 SW18G29   29.76F HX  91
SILVER BAY     PTSUNNY   82  68  61 S13G22    29.77S
GRAND MARAIS     N/A     73  60  63 NE12      29.81F
G MARAIS ARPRT CLOUDY    70  61  73 SE7G16    29.87S
$$
MNZ029>031-032-039>041-046>048-054>057-064-282000-
   West Central Minnesota

CITY           SKY/WX    TMP DP  RH WIND       PRES   REMARKS
FERGUS FALLS   SUNNY     77  61  57 W17G24    29.75S
WHEATON        SUNNY     75  59  57 W15G23    29.80R
MORRIS         SUNNY     79  68  69 W15       29.79S
ALEXANDRIA     CLOUDY    76  67  73 W15       29.81S
ELBOW LAKE     FAIR      77  63  62 SW17G23   29.79R
WADENA         PTSUNNY   79  66  65 SW15G22   29.75F
GLENWOOD       PTSUNNY   75  68  78 SW13      29.81S
APPLETON       MOSUNNY   81  66  61 W16       29.81R
BENSON         CLOUDY    79  68  69 W6        29.80S
ORTONVILLE     SUNNY     79  61  53 W12       29.81R
MADISON        SUNNY     79  64  61 W10       29.83R
WILLMAR        FAIR      81  72  74 SW7       29.82S
$$
MNZ033>034-036-042>043-049>051-058-059-282000-
   Central Minnesota

CITY           SKY/WX    TMP DP  RH WIND       PRES   REMARKS
ST CLOUD       PTSUNNY   80  69  69 SW12      29.80S
SAUK CENTRE    CLOUDY    78  70  76 SW10      29.79F
PAYNESVILLE    CLOUDY    78  68  70 SE9G16    29.81F
AITKIN         CLOUDY    79  68  69 S10       29.77R
PINE RIVER     CLOUDY    77  68  73 SW12      29.79F
BRAINERD       CLOUDY    77  67  71 S16G24    29.78S
STAPLES        CLOUDY    77  66  69 S12       29.77S
LONG PRAIRIE   CLOUDY    77  68  73 SW12G20   29.80F
LITTLE FALLS   PTSUNNY   79  66  65 S10G18    29.79S
LITCHFIELD     MOSUNNY   81  73  78 SW6       29.83R
BUFFALO        PTSUNNY   80  68  67 S10G16    29.83S
MAPLE LAKE     PTSUNNY   81  72  74 S8        29.83S
$$
MNZ037-044-045-052-053-282000-
   East Central Minnesota

CITY           SKY/WX    TMP DP  RH WIND       PRES   REMARKS
PRINCETON      PTSUNNY   82  70  65 S9        29.81S
MORA           PTSUNNY   79  66  65 SW10G20   29.81F
CAMBRIDGE      PTSUNNY   82  68  61 S16G22    29.80R
RUSH CITY      PTSUNNY   80  69  68 S15       29.81F
MOOSE LAKE     CLOUDY    79  68  69 SW9G20    29.77S
HINCKLEY       CLOUDY    79  70  73 S14G22    29.80F
CLOQUET        PTSUNNY   81  64  57 S17G23    29.78F
MCGREGOR       CLOUDY    79  66  65 S18G30    29.79S
$$
MNZ071>073-080-081-089-090-097-098-282000-
   Southwest Minnesota

CITY           SKY/WX    TMP DP  RH WIND       PRES   REMARKS
MONTEVIDEO     PTSUNNY   79  79 100 W12       29.83S
GRANITE FALLS  CLOUDY    80  71  73 SW14G20   29.83S
CANBY          MOSUNNY   79  64  59 W18       29.85R
MARSHALL       CLOUDY    79  66  65 W16       29.85S
REDWOOD FALLS  CLOUDY    83  71  67 SW15      29.80F
OLIVIA         PTSUNNY   77  68  73 SW6       29.81F
PIPESTONE      PTSUNNY   75  68  78 NW14G21   29.89R
WINDOM         PTSUNNY   79  70  73 SW10G16   29.86R
WORTHINGTON    CLOUDY    73  68  83 SW10      29.88R
JACKSON        PTSUNNY   81  72  74 SW13G20   29.88R
TRACY          CLOUDY    79  70  73 W8G16     29.85R
SLAYTON        CLOUDY    75  70  84 W12       29.88R
$$
MNZ065>067-074>077-082>085-091>093-282000-
   South Central Minnesota

CITY           SKY/WX    TMP DP  RH WIND       PRES   REMARKS
MANKATO        PTSUNNY   81  72  74 SW12      29.83S
NEW ULM        PTSUNNY   81  72  74 SW8       29.83R
ST JAMES       MOSUNNY   84  73  70 SW12      29.84S HX  91
FAIRMONT       PTSUNNY   81  68  65 SW10      29.85S
GLENCOE        CLOUDY    80  73  78 S10       29.82S
FARIBAULT      PTSUNNY   81  73  78 S7        29.84F
OWATONNA       PTSUNNY   82  72  69 S14       29.85R
WASECA         PTSUNNY   79  70  73 S10       29.86S
ALBERT LEA     PTSUNNY   82  72  69 S10G16    29.86R
$$
MNZ078>079-086>088-094>096-282000-
   Southeast Minnesota

CITY           SKY/WX    TMP DP  RH WIND       PRES   REMARKS
ROCHESTER      PTSUNNY   80  74  81 S14       29.86S
RED WING       CLOUDY    81  72  74 S8        29.82S
STANTON        PTSUNNY   82  72  72 S8        29.82F
DODGE CENTER   PTSUNNY   81  73  78 S14       29.86S
WINONA         CLOUDY    79  72  78 SE5       29.82F
AUSTIN         PTSUNNY   82  73  74 S12       29.86S
PRESTON        CLOUDY    78  71  79 S14       29.87S
$$
ABBREVIATIONS USED IN REMARKS
   TC - TEMPERATURES IN CELSIUS
  WCI - WIND CHILL INDEX
   HX - HEAT INDEX
  VSB - VISIBILITY
$$


USA.gov is the U.S. government's official web portal to all federal, state and local government web resources and services.